Index of /20260430/WXO-DD/model_gdps/15km/12/111
Name Last modified Size Description
Parent Directory -
20260430T12Z_MSC_GDPS_AbsoluteVorticity_IsbL-0200_LatLon0.15_PT111H.grib2 2026-04-30 16:24 1.5M
20260430T12Z_MSC_GDPS_AbsoluteVorticity_IsbL-0250_LatLon0.15_PT111H.grib2 2026-04-30 16:24 1.3M
20260430T12Z_MSC_GDPS_AbsoluteVorticity_IsbL-0500_LatLon0.15_PT111H.grib2 2026-04-30 16:24 1.4M
20260430T12Z_MSC_GDPS_AbsoluteVorticity_IsbL-0700_LatLon0.15_PT111H.grib2 2026-04-30 16:24 1.3M
20260430T12Z_MSC_GDPS_AbsoluteVorticity_IsbL-0850_LatLon0.15_PT111H.grib2 2026-04-30 16:24 1.6M
20260430T12Z_MSC_GDPS_AirTemp_AGL-120m_LatLon0.15_PT111H.grib2 2026-04-30 16:24 902K
20260430T12Z_MSC_GDPS_AirTemp_AGL-2m_LatLon0.15_PT111H.grib2 2026-04-30 16:24 1.0M
20260430T12Z_MSC_GDPS_AirTemp_AGL-40m_LatLon0.15_PT111H.grib2 2026-04-30 16:24 805K
20260430T12Z_MSC_GDPS_AirTemp_AGL-80m_LatLon0.15_PT111H.grib2 2026-04-30 16:24 910K
20260430T12Z_MSC_GDPS_AirTemp_IsbL-0001_LatLon0.15_PT111H.grib2 2026-04-30 16:24 713K
20260430T12Z_MSC_GDPS_AirTemp_IsbL-0005_LatLon0.15_PT111H.grib2 2026-04-30 16:24 680K
20260430T12Z_MSC_GDPS_AirTemp_IsbL-0010_LatLon0.15_PT111H.grib2 2026-04-30 16:24 696K
20260430T12Z_MSC_GDPS_AirTemp_IsbL-0020_LatLon0.15_PT111H.grib2 2026-04-30 16:24 790K
20260430T12Z_MSC_GDPS_AirTemp_IsbL-0030_LatLon0.15_PT111H.grib2 2026-04-30 16:24 757K
20260430T12Z_MSC_GDPS_AirTemp_IsbL-0050_LatLon0.15_PT111H.grib2 2026-04-30 16:24 814K
20260430T12Z_MSC_GDPS_AirTemp_IsbL-0100_LatLon0.15_PT111H.grib2 2026-04-30 16:24 969K
20260430T12Z_MSC_GDPS_AirTemp_IsbL-0150_LatLon0.15_PT111H.grib2 2026-04-30 16:24 965K
20260430T12Z_MSC_GDPS_AirTemp_IsbL-0175_LatLon0.15_PT111H.grib2 2026-04-30 16:24 953K
20260430T12Z_MSC_GDPS_AirTemp_IsbL-0200_LatLon0.15_PT111H.grib2 2026-04-30 16:24 965K
20260430T12Z_MSC_GDPS_AirTemp_IsbL-0225_LatLon0.15_PT111H.grib2 2026-04-30 16:24 967K
20260430T12Z_MSC_GDPS_AirTemp_IsbL-0250_LatLon0.15_PT111H.grib2 2026-04-30 16:24 1.0M
20260430T12Z_MSC_GDPS_AirTemp_IsbL-0275_LatLon0.15_PT111H.grib2 2026-04-30 16:24 1.0M
20260430T12Z_MSC_GDPS_AirTemp_IsbL-0300_LatLon0.15_PT111H.grib2 2026-04-30 16:24 1.0M
20260430T12Z_MSC_GDPS_AirTemp_IsbL-0350_LatLon0.15_PT111H.grib2 2026-04-30 16:24 920K
20260430T12Z_MSC_GDPS_AirTemp_IsbL-0400_LatLon0.15_PT111H.grib2 2026-04-30 16:24 935K
20260430T12Z_MSC_GDPS_AirTemp_IsbL-0450_LatLon0.15_PT111H.grib2 2026-04-30 16:24 956K
20260430T12Z_MSC_GDPS_AirTemp_IsbL-0500_LatLon0.15_PT111H.grib2 2026-04-30 16:24 1.0M
20260430T12Z_MSC_GDPS_AirTemp_IsbL-0550_LatLon0.15_PT111H.grib2 2026-04-30 16:24 792K
20260430T12Z_MSC_GDPS_AirTemp_IsbL-0600_LatLon0.15_PT111H.grib2 2026-04-30 16:24 882K
20260430T12Z_MSC_GDPS_AirTemp_IsbL-0650_LatLon0.15_PT111H.grib2 2026-04-30 16:24 905K
20260430T12Z_MSC_GDPS_AirTemp_IsbL-0700_LatLon0.15_PT111H.grib2 2026-04-30 16:24 941K
20260430T12Z_MSC_GDPS_AirTemp_IsbL-0750_LatLon0.15_PT111H.grib2 2026-04-30 16:24 1.0M
20260430T12Z_MSC_GDPS_AirTemp_IsbL-0800_LatLon0.15_PT111H.grib2 2026-04-30 16:24 1.0M
20260430T12Z_MSC_GDPS_AirTemp_IsbL-0850_LatLon0.15_PT111H.grib2 2026-04-30 16:24 1.1M
20260430T12Z_MSC_GDPS_AirTemp_IsbL-0875_LatLon0.15_PT111H.grib2 2026-04-30 16:24 1.2M
20260430T12Z_MSC_GDPS_AirTemp_IsbL-0900_LatLon0.15_PT111H.grib2 2026-04-30 16:24 1.1M
20260430T12Z_MSC_GDPS_AirTemp_IsbL-0925_LatLon0.15_PT111H.grib2 2026-04-30 16:24 1.1M
20260430T12Z_MSC_GDPS_AirTemp_IsbL-0950_LatLon0.15_PT111H.grib2 2026-04-30 16:24 1.1M
20260430T12Z_MSC_GDPS_AirTemp_IsbL-0970_LatLon0.15_PT111H.grib2 2026-04-30 16:24 1.1M
20260430T12Z_MSC_GDPS_AirTemp_IsbL-0985_LatLon0.15_PT111H.grib2 2026-04-30 16:24 1.1M
20260430T12Z_MSC_GDPS_AirTemp_IsbL-1000_LatLon0.15_PT111H.grib2 2026-04-30 16:24 1.1M
20260430T12Z_MSC_GDPS_AirTemp_IsbL-1015_LatLon0.15_PT111H.grib2 2026-04-30 16:24 1.1M
20260430T12Z_MSC_GDPS_Albedo_Sfc_LatLon0.15_PT111H.grib2 2026-04-30 16:24 243K
20260430T12Z_MSC_GDPS_CAPE_Sfc_LatLon0.15_PT111H.grib2 2026-04-30 16:24 4.0M
20260430T12Z_MSC_GDPS_CIN_Sfc_LatLon0.15_PT111H.grib2 2026-04-30 16:24 2.8M
20260430T12Z_MSC_GDPS_CloudWater_EAtm_LatLon0.15_PT111H.grib2 2026-04-30 16:24 529K
20260430T12Z_MSC_GDPS_ConvectivePrecip-Accum_Sfc_LatLon0.15_PT111H.grib2 2026-04-30 16:24 3.4M
20260430T12Z_MSC_GDPS_DewPointDepression_AGL-2m_LatLon0.15_PT111H.grib2 2026-04-30 16:24 598K
20260430T12Z_MSC_GDPS_DewPointDepression_IsbL-0010_LatLon0.15_PT111H.grib2 2026-04-30 16:24 73K
20260430T12Z_MSC_GDPS_DewPointDepression_IsbL-0020_LatLon0.15_PT111H.grib2 2026-04-30 16:24 75K
20260430T12Z_MSC_GDPS_DewPointDepression_IsbL-0030_LatLon0.15_PT111H.grib2 2026-04-30 16:24 87K
20260430T12Z_MSC_GDPS_DewPointDepression_IsbL-0050_LatLon0.15_PT111H.grib2 2026-04-30 16:24 383K
20260430T12Z_MSC_GDPS_DewPointDepression_IsbL-0100_LatLon0.15_PT111H.grib2 2026-04-30 16:24 402K
20260430T12Z_MSC_GDPS_DewPointDepression_IsbL-0150_LatLon0.15_PT111H.grib2 2026-04-30 16:24 473K
20260430T12Z_MSC_GDPS_DewPointDepression_IsbL-0175_LatLon0.15_PT111H.grib2 2026-04-30 16:24 577K
20260430T12Z_MSC_GDPS_DewPointDepression_IsbL-0200_LatLon0.15_PT111H.grib2 2026-04-30 16:24 676K
20260430T12Z_MSC_GDPS_DewPointDepression_IsbL-0225_LatLon0.15_PT111H.grib2 2026-04-30 16:24 763K
20260430T12Z_MSC_GDPS_DewPointDepression_IsbL-0250_LatLon0.15_PT111H.grib2 2026-04-30 16:24 852K
20260430T12Z_MSC_GDPS_DewPointDepression_IsbL-0275_LatLon0.15_PT111H.grib2 2026-04-30 16:24 872K
20260430T12Z_MSC_GDPS_DewPointDepression_IsbL-0300_LatLon0.15_PT111H.grib2 2026-04-30 16:24 917K
20260430T12Z_MSC_GDPS_DewPointDepression_IsbL-0350_LatLon0.15_PT111H.grib2 2026-04-30 16:24 953K
20260430T12Z_MSC_GDPS_DewPointDepression_IsbL-0400_LatLon0.15_PT111H.grib2 2026-04-30 16:24 1.0M
20260430T12Z_MSC_GDPS_DewPointDepression_IsbL-0450_LatLon0.15_PT111H.grib2 2026-04-30 16:24 1.0M
20260430T12Z_MSC_GDPS_DewPointDepression_IsbL-0500_LatLon0.15_PT111H.grib2 2026-04-30 16:24 1.0M
20260430T12Z_MSC_GDPS_DewPointDepression_IsbL-0550_LatLon0.15_PT111H.grib2 2026-04-30 16:24 1.0M
20260430T12Z_MSC_GDPS_DewPointDepression_IsbL-0600_LatLon0.15_PT111H.grib2 2026-04-30 16:24 1.0M
20260430T12Z_MSC_GDPS_DewPointDepression_IsbL-0650_LatLon0.15_PT111H.grib2 2026-04-30 16:24 1.0M
20260430T12Z_MSC_GDPS_DewPointDepression_IsbL-0700_LatLon0.15_PT111H.grib2 2026-04-30 16:24 1.1M
20260430T12Z_MSC_GDPS_DewPointDepression_IsbL-0750_LatLon0.15_PT111H.grib2 2026-04-30 16:24 1.1M
20260430T12Z_MSC_GDPS_DewPointDepression_IsbL-0800_LatLon0.15_PT111H.grib2 2026-04-30 16:24 1.1M
20260430T12Z_MSC_GDPS_DewPointDepression_IsbL-0850_LatLon0.15_PT111H.grib2 2026-04-30 16:24 1.1M
20260430T12Z_MSC_GDPS_DewPointDepression_IsbL-0875_LatLon0.15_PT111H.grib2 2026-04-30 16:24 1.1M
20260430T12Z_MSC_GDPS_DewPointDepression_IsbL-0900_LatLon0.15_PT111H.grib2 2026-04-30 16:24 1.1M
20260430T12Z_MSC_GDPS_DewPointDepression_IsbL-0925_LatLon0.15_PT111H.grib2 2026-04-30 16:24 1.0M
20260430T12Z_MSC_GDPS_DewPointDepression_IsbL-0950_LatLon0.15_PT111H.grib2 2026-04-30 16:24 1.0M
20260430T12Z_MSC_GDPS_DewPointDepression_IsbL-0970_LatLon0.15_PT111H.grib2 2026-04-30 16:24 1.0M
20260430T12Z_MSC_GDPS_DewPointDepression_IsbL-0985_LatLon0.15_PT111H.grib2 2026-04-30 16:24 1.0M
20260430T12Z_MSC_GDPS_DewPointDepression_IsbL-1000_LatLon0.15_PT111H.grib2 2026-04-30 16:24 970K
20260430T12Z_MSC_GDPS_DewPointDepression_IsbL-1015_LatLon0.15_PT111H.grib2 2026-04-30 16:24 914K
20260430T12Z_MSC_GDPS_DewPoint_AGL-2m_LatLon0.15_PT111H.grib2 2026-04-30 16:24 601K
20260430T12Z_MSC_GDPS_DownwardLongwaveRadiationFlux-Accum_Sfc_LatLon0.15_PT111H.grib2 2026-04-30 16:24 788K
20260430T12Z_MSC_GDPS_DownwardShortwaveRadiationFlux-Accum_NTAtm_LatLon0.15_PT111H.grib2 2026-04-30 16:24 297K
20260430T12Z_MSC_GDPS_DownwardShortwaveRadiationFlux-Accum_Sfc_LatLon0.15_PT111H.grib2 2026-04-30 16:24 1.0M
20260430T12Z_MSC_GDPS_FreezingRain-Accum1h_Sfc_LatLon0.15_PT111H.grib2 2026-04-30 16:24 33K
20260430T12Z_MSC_GDPS_FreezingRain-Accum3h_Sfc_LatLon0.15_PT111H.grib2 2026-04-30 16:24 40K
20260430T12Z_MSC_GDPS_FreezingRain-Accum_Sfc_LatLon0.15_PT111H.grib2 2026-04-30 16:24 394K
20260430T12Z_MSC_GDPS_GeopotentialHeight_IsbL-0001_LatLon0.15_PT111H.grib2 2026-04-30 16:24 415K
20260430T12Z_MSC_GDPS_GeopotentialHeight_IsbL-0005_LatLon0.15_PT111H.grib2 2026-04-30 16:24 485K
20260430T12Z_MSC_GDPS_GeopotentialHeight_IsbL-0010_LatLon0.15_PT111H.grib2 2026-04-30 16:24 476K
20260430T12Z_MSC_GDPS_GeopotentialHeight_IsbL-0020_LatLon0.15_PT111H.grib2 2026-04-30 16:24 413K
20260430T12Z_MSC_GDPS_GeopotentialHeight_IsbL-0030_LatLon0.15_PT111H.grib2 2026-04-30 16:24 568K
20260430T12Z_MSC_GDPS_GeopotentialHeight_IsbL-0050_LatLon0.15_PT111H.grib2 2026-04-30 16:24 566K
20260430T12Z_MSC_GDPS_GeopotentialHeight_IsbL-0100_LatLon0.15_PT111H.grib2 2026-04-30 16:24 605K
20260430T12Z_MSC_GDPS_GeopotentialHeight_IsbL-0150_LatLon0.15_PT111H.grib2 2026-04-30 16:24 623K
20260430T12Z_MSC_GDPS_GeopotentialHeight_IsbL-0175_LatLon0.15_PT111H.grib2 2026-04-30 16:24 627K
20260430T12Z_MSC_GDPS_GeopotentialHeight_IsbL-0200_LatLon0.15_PT111H.grib2 2026-04-30 16:24 629K
20260430T12Z_MSC_GDPS_GeopotentialHeight_IsbL-0225_LatLon0.15_PT111H.grib2 2026-04-30 16:24 626K
20260430T12Z_MSC_GDPS_GeopotentialHeight_IsbL-0250_LatLon0.15_PT111H.grib2 2026-04-30 16:24 638K
20260430T12Z_MSC_GDPS_GeopotentialHeight_IsbL-0275_LatLon0.15_PT111H.grib2 2026-04-30 16:24 637K
20260430T12Z_MSC_GDPS_GeopotentialHeight_IsbL-0300_LatLon0.15_PT111H.grib2 2026-04-30 16:24 636K
20260430T12Z_MSC_GDPS_GeopotentialHeight_IsbL-0350_LatLon0.15_PT111H.grib2 2026-04-30 16:24 626K
20260430T12Z_MSC_GDPS_GeopotentialHeight_IsbL-0400_LatLon0.15_PT111H.grib2 2026-04-30 16:24 616K
20260430T12Z_MSC_GDPS_GeopotentialHeight_IsbL-0450_LatLon0.15_PT111H.grib2 2026-04-30 16:24 605K
20260430T12Z_MSC_GDPS_GeopotentialHeight_IsbL-0500_LatLon0.15_PT111H.grib2 2026-04-30 16:24 528K
20260430T12Z_MSC_GDPS_GeopotentialHeight_IsbL-0550_LatLon0.15_PT111H.grib2 2026-04-30 16:24 520K
20260430T12Z_MSC_GDPS_GeopotentialHeight_IsbL-0600_LatLon0.15_PT111H.grib2 2026-04-30 16:24 683K
20260430T12Z_MSC_GDPS_GeopotentialHeight_IsbL-0650_LatLon0.15_PT111H.grib2 2026-04-30 16:24 684K
20260430T12Z_MSC_GDPS_GeopotentialHeight_IsbL-0700_LatLon0.15_PT111H.grib2 2026-04-30 16:24 684K
20260430T12Z_MSC_GDPS_GeopotentialHeight_IsbL-0750_LatLon0.15_PT111H.grib2 2026-04-30 16:24 689K
20260430T12Z_MSC_GDPS_GeopotentialHeight_IsbL-0800_LatLon0.15_PT111H.grib2 2026-04-30 16:24 698K
20260430T12Z_MSC_GDPS_GeopotentialHeight_IsbL-0850_LatLon0.15_PT111H.grib2 2026-04-30 16:24 706K
20260430T12Z_MSC_GDPS_GeopotentialHeight_IsbL-0875_LatLon0.15_PT111H.grib2 2026-04-30 16:24 716K
20260430T12Z_MSC_GDPS_GeopotentialHeight_IsbL-0900_LatLon0.15_PT111H.grib2 2026-04-30 16:24 725K
20260430T12Z_MSC_GDPS_GeopotentialHeight_IsbL-0925_LatLon0.15_PT111H.grib2 2026-04-30 16:24 729K
20260430T12Z_MSC_GDPS_GeopotentialHeight_IsbL-0950_LatLon0.15_PT111H.grib2 2026-04-30 16:24 738K
20260430T12Z_MSC_GDPS_GeopotentialHeight_IsbL-0970_LatLon0.15_PT111H.grib2 2026-04-30 16:24 748K
20260430T12Z_MSC_GDPS_GeopotentialHeight_IsbL-0985_LatLon0.15_PT111H.grib2 2026-04-30 16:24 763K
20260430T12Z_MSC_GDPS_GeopotentialHeight_IsbL-1000_LatLon0.15_PT111H.grib2 2026-04-30 16:24 782K
20260430T12Z_MSC_GDPS_GeopotentialHeight_IsbL-1015_LatLon0.15_PT111H.grib2 2026-04-30 16:24 614K
20260430T12Z_MSC_GDPS_Humidex_Sfc_LatLon0.15_PT111H.grib2 2026-04-30 16:24 5.3M
20260430T12Z_MSC_GDPS_IcePellets-Accum1h_Sfc_LatLon0.15_PT111H.grib2 2026-04-30 16:24 13K
20260430T12Z_MSC_GDPS_IcePellets-Accum3h_Sfc_LatLon0.15_PT111H.grib2 2026-04-30 16:24 19K
20260430T12Z_MSC_GDPS_IcePellets-Accum_Sfc_LatLon0.15_PT111H.grib2 2026-04-30 16:24 101K
20260430T12Z_MSC_GDPS_KIndex_Sfc_LatLon0.15_PT111H.grib2 2026-04-30 16:24 6.5M
20260430T12Z_MSC_GDPS_LatentHeatNetFlux_Sfc_LatLon0.15_PT111H.grib2 2026-04-30 16:24 690K
20260430T12Z_MSC_GDPS_LiftedIndex-MU-VT_IsbL-0500_LatLon0.15_PT111H.grib2 2026-04-30 16:24 5.4M
20260430T12Z_MSC_GDPS_NetLongwaveRadiationFlux-Accum_Sfc_LatLon0.15_PT111H.grib2 2026-04-30 16:24 1.0M
20260430T12Z_MSC_GDPS_NetShortwaveRadiationFlux-Accum_Sfc_LatLon0.15_PT111H.grib2 2026-04-30 16:24 973K
20260430T12Z_MSC_GDPS_O3MixingRatio_Sfc_LatLon0.15_PT111H.grib2 2026-04-30 16:45 1.9M
20260430T12Z_MSC_GDPS_O3_EAtm_LatLon0.15_PT111H.grib2 2026-04-30 16:45 2.4M
20260430T12Z_MSC_GDPS_PlanetaryBoundaryLayerHeight_Sfc_LatLon0.15_PT111H.grib2 2026-04-30 16:24 2.4M
20260430T12Z_MSC_GDPS_Precip-Accum1h_Sfc_LatLon0.15_PT111H.grib2 2026-04-30 16:24 3.2M
20260430T12Z_MSC_GDPS_Precip-Accum3h_Sfc_LatLon0.15_PT111H.grib2 2026-04-30 16:24 3.4M
20260430T12Z_MSC_GDPS_Precip-Accum_Sfc_LatLon0.15_PT111H.grib2 2026-04-30 16:24 5.4M
20260430T12Z_MSC_GDPS_PrecipRate_Sfc_LatLon0.15_PT111H.grib2 2026-04-30 16:24 2.9M
20260430T12Z_MSC_GDPS_PrecipType-Instant_Sfc_LatLon0.15_PT111H.grib2 2026-04-30 16:24 1.5M
20260430T12Z_MSC_GDPS_Pressure_MSL_LatLon0.15_PT111H.grib2 2026-04-30 16:24 823K
20260430T12Z_MSC_GDPS_Pressure_PVU-1.5_LatLon0.15_PT111H.grib2 2026-04-30 16:24 5.8M
20260430T12Z_MSC_GDPS_Pressure_PVU-1_LatLon0.15_PT111H.grib2 2026-04-30 16:24 6.0M
20260430T12Z_MSC_GDPS_Pressure_PVU-2_LatLon0.15_PT111H.grib2 2026-04-30 16:24 5.6M
20260430T12Z_MSC_GDPS_Pressure_Sfc_LatLon0.15_PT111H.grib2 2026-04-30 16:24 1.1M
20260430T12Z_MSC_GDPS_RadiativeTemp_Sfc_LatLon0.15_PT111H.grib2 2026-04-30 16:24 662K
20260430T12Z_MSC_GDPS_Rain-Accum1h_Sfc_LatLon0.15_PT111H.grib2 2026-04-30 16:24 1.6M
20260430T12Z_MSC_GDPS_Rain-Accum3h_Sfc_LatLon0.15_PT111H.grib2 2026-04-30 16:24 1.6M
20260430T12Z_MSC_GDPS_Rain-Accum_Sfc_LatLon0.15_PT111H.grib2 2026-04-30 16:24 4.2M
20260430T12Z_MSC_GDPS_RelativeHumidity_AGL-2m_LatLon0.15_PT111H.grib2 2026-04-30 16:24 1.1M
20260430T12Z_MSC_GDPS_RelativeHumidity_IsbL-0010_LatLon0.15_PT111H.grib2 2026-04-30 16:24 197K
20260430T12Z_MSC_GDPS_RelativeHumidity_IsbL-0020_LatLon0.15_PT111H.grib2 2026-04-30 16:24 165K
20260430T12Z_MSC_GDPS_RelativeHumidity_IsbL-0030_LatLon0.15_PT111H.grib2 2026-04-30 16:24 189K
20260430T12Z_MSC_GDPS_RelativeHumidity_IsbL-0050_LatLon0.15_PT111H.grib2 2026-04-30 16:24 339K
20260430T12Z_MSC_GDPS_RelativeHumidity_IsbL-0100_LatLon0.15_PT111H.grib2 2026-04-30 16:24 507K
20260430T12Z_MSC_GDPS_RelativeHumidity_IsbL-0150_LatLon0.15_PT111H.grib2 2026-04-30 16:24 660K
20260430T12Z_MSC_GDPS_RelativeHumidity_IsbL-0175_LatLon0.15_PT111H.grib2 2026-04-30 16:24 785K
20260430T12Z_MSC_GDPS_RelativeHumidity_IsbL-0200_LatLon0.15_PT111H.grib2 2026-04-30 16:24 700K
20260430T12Z_MSC_GDPS_RelativeHumidity_IsbL-0225_LatLon0.15_PT111H.grib2 2026-04-30 16:24 781K
20260430T12Z_MSC_GDPS_RelativeHumidity_IsbL-0250_LatLon0.15_PT111H.grib2 2026-04-30 16:24 852K
20260430T12Z_MSC_GDPS_RelativeHumidity_IsbL-0275_LatLon0.15_PT111H.grib2 2026-04-30 16:24 874K
20260430T12Z_MSC_GDPS_RelativeHumidity_IsbL-0300_LatLon0.15_PT111H.grib2 2026-04-30 16:24 918K
20260430T12Z_MSC_GDPS_RelativeHumidity_IsbL-0350_LatLon0.15_PT111H.grib2 2026-04-30 16:24 944K
20260430T12Z_MSC_GDPS_RelativeHumidity_IsbL-0400_LatLon0.15_PT111H.grib2 2026-04-30 16:24 965K
20260430T12Z_MSC_GDPS_RelativeHumidity_IsbL-0450_LatLon0.15_PT111H.grib2 2026-04-30 16:24 1.0M
20260430T12Z_MSC_GDPS_RelativeHumidity_IsbL-0500_LatLon0.15_PT111H.grib2 2026-04-30 16:24 1.0M
20260430T12Z_MSC_GDPS_RelativeHumidity_IsbL-0550_LatLon0.15_PT111H.grib2 2026-04-30 16:24 1.0M
20260430T12Z_MSC_GDPS_RelativeHumidity_IsbL-0600_LatLon0.15_PT111H.grib2 2026-04-30 16:24 1.1M
20260430T12Z_MSC_GDPS_RelativeHumidity_IsbL-0650_LatLon0.15_PT111H.grib2 2026-04-30 16:24 1.1M
20260430T12Z_MSC_GDPS_RelativeHumidity_IsbL-0700_LatLon0.15_PT111H.grib2 2026-04-30 16:24 1.1M
20260430T12Z_MSC_GDPS_RelativeHumidity_IsbL-0750_LatLon0.15_PT111H.grib2 2026-04-30 16:24 1.2M
20260430T12Z_MSC_GDPS_RelativeHumidity_IsbL-0800_LatLon0.15_PT111H.grib2 2026-04-30 16:24 1.2M
20260430T12Z_MSC_GDPS_RelativeHumidity_IsbL-0850_LatLon0.15_PT111H.grib2 2026-04-30 16:24 1.3M
20260430T12Z_MSC_GDPS_RelativeHumidity_IsbL-0875_LatLon0.15_PT111H.grib2 2026-04-30 16:24 1.3M
20260430T12Z_MSC_GDPS_RelativeHumidity_IsbL-0900_LatLon0.15_PT111H.grib2 2026-04-30 16:24 1.2M
20260430T12Z_MSC_GDPS_RelativeHumidity_IsbL-0925_LatLon0.15_PT111H.grib2 2026-04-30 16:24 1.2M
20260430T12Z_MSC_GDPS_RelativeHumidity_IsbL-0950_LatLon0.15_PT111H.grib2 2026-04-30 16:24 1.2M
20260430T12Z_MSC_GDPS_RelativeHumidity_IsbL-0970_LatLon0.15_PT111H.grib2 2026-04-30 16:24 1.2M
20260430T12Z_MSC_GDPS_RelativeHumidity_IsbL-0985_LatLon0.15_PT111H.grib2 2026-04-30 16:24 1.1M
20260430T12Z_MSC_GDPS_RelativeHumidity_IsbL-1000_LatLon0.15_PT111H.grib2 2026-04-30 16:24 1.1M
20260430T12Z_MSC_GDPS_RelativeHumidity_IsbL-1015_LatLon0.15_PT111H.grib2 2026-04-30 16:24 1.0M
20260430T12Z_MSC_GDPS_RelativeVorticity_IsbL-0200_LatLon0.15_PT111H.grib2 2026-04-30 16:24 1.5M
20260430T12Z_MSC_GDPS_RelativeVorticity_IsbL-0250_LatLon0.15_PT111H.grib2 2026-04-30 16:24 1.3M
20260430T12Z_MSC_GDPS_RelativeVorticity_IsbL-0500_LatLon0.15_PT111H.grib2 2026-04-30 16:24 1.4M
20260430T12Z_MSC_GDPS_RelativeVorticity_IsbL-0700_LatLon0.15_PT111H.grib2 2026-04-30 16:24 1.6M
20260430T12Z_MSC_GDPS_RelativeVorticity_IsbL-0850_LatLon0.15_PT111H.grib2 2026-04-30 16:24 1.6M
20260430T12Z_MSC_GDPS_Runoff-Accum_Sfc_LatLon0.15_PT111H.grib2 2026-04-30 16:24 137K
20260430T12Z_MSC_GDPS_SensibleHeatNetFlux_Sfc_LatLon0.15_PT111H.grib2 2026-04-30 16:24 469K
20260430T12Z_MSC_GDPS_ShowalterIndex_IsbL-0500_LatLon0.15_PT111H.grib2 2026-04-30 16:24 6.2M
20260430T12Z_MSC_GDPS_Snow-Accum1h_Sfc_LatLon0.15_PT111H.grib2 2026-04-30 16:24 1.1M
20260430T12Z_MSC_GDPS_Snow-Accum3h_Sfc_LatLon0.15_PT111H.grib2 2026-04-30 16:24 1.0M
20260430T12Z_MSC_GDPS_Snow-Accum_Sfc_LatLon0.15_PT111H.grib2 2026-04-30 16:24 2.0M
20260430T12Z_MSC_GDPS_SnowDensity_Sfc_LatLon0.15_PT111H.grib2 2026-04-30 16:24 263K
20260430T12Z_MSC_GDPS_SnowDepth_Sfc_LatLon0.15_PT111H.grib2 2026-04-30 16:24 1.7M
20260430T12Z_MSC_GDPS_SoilTemp_DBS-0to10cm_LatLon0.15_PT111H.grib2 2026-04-30 16:24 511K
20260430T12Z_MSC_GDPS_SoilTemp_Sfc_LatLon0.15_PT111H.grib2 2026-04-30 16:24 583K
20260430T12Z_MSC_GDPS_SoilVolumetricIceContent_Sfc_LatLon0.15_PT111H.grib2 2026-04-30 16:24 194K
20260430T12Z_MSC_GDPS_SoilVolumetricWaterContent_DBS-0to10cm_LatLon0.15_PT111H.grib2 2026-04-30 16:24 590K
20260430T12Z_MSC_GDPS_SoilVolumetricWaterContent_DBS-0to1cm_LatLon0.15_PT111H.grib2 2026-04-30 16:24 653K
20260430T12Z_MSC_GDPS_SpecificHumidity_AGL-120m_LatLon0.15_PT111H.grib2 2026-04-30 16:24 1.1M
20260430T12Z_MSC_GDPS_SpecificHumidity_AGL-2m_LatLon0.15_PT111H.grib2 2026-04-30 16:24 1.2M
20260430T12Z_MSC_GDPS_SpecificHumidity_AGL-40m_LatLon0.15_PT111H.grib2 2026-04-30 16:24 1.1M
20260430T12Z_MSC_GDPS_SpecificHumidity_AGL-80m_LatLon0.15_PT111H.grib2 2026-04-30 16:24 1.1M
20260430T12Z_MSC_GDPS_SpecificHumidity_IsbL-0001_LatLon0.15_PT111H.grib2 2026-04-30 16:24 1.2M
20260430T12Z_MSC_GDPS_SpecificHumidity_IsbL-0005_LatLon0.15_PT111H.grib2 2026-04-30 16:24 1.2M
20260430T12Z_MSC_GDPS_SpecificHumidity_IsbL-0010_LatLon0.15_PT111H.grib2 2026-04-30 16:24 1.3M
20260430T12Z_MSC_GDPS_SpecificHumidity_IsbL-0020_LatLon0.15_PT111H.grib2 2026-04-30 16:24 1.3M
20260430T12Z_MSC_GDPS_SpecificHumidity_IsbL-0030_LatLon0.15_PT111H.grib2 2026-04-30 16:24 1.6M
20260430T12Z_MSC_GDPS_SpecificHumidity_IsbL-0050_LatLon0.15_PT111H.grib2 2026-04-30 16:24 1.6M
20260430T12Z_MSC_GDPS_SpecificHumidity_IsbL-0100_LatLon0.15_PT111H.grib2 2026-04-30 16:24 1.3M
20260430T12Z_MSC_GDPS_SpecificHumidity_IsbL-0150_LatLon0.15_PT111H.grib2 2026-04-30 16:24 1.3M
20260430T12Z_MSC_GDPS_SpecificHumidity_IsbL-0175_LatLon0.15_PT111H.grib2 2026-04-30 16:24 1.3M
20260430T12Z_MSC_GDPS_SpecificHumidity_IsbL-0200_LatLon0.15_PT111H.grib2 2026-04-30 16:24 1.3M
20260430T12Z_MSC_GDPS_SpecificHumidity_IsbL-0225_LatLon0.15_PT111H.grib2 2026-04-30 16:24 1.3M
20260430T12Z_MSC_GDPS_SpecificHumidity_IsbL-0250_LatLon0.15_PT111H.grib2 2026-04-30 16:24 1.4M
20260430T12Z_MSC_GDPS_SpecificHumidity_IsbL-0275_LatLon0.15_PT111H.grib2 2026-04-30 16:24 1.3M
20260430T12Z_MSC_GDPS_SpecificHumidity_IsbL-0300_LatLon0.15_PT111H.grib2 2026-04-30 16:24 1.2M
20260430T12Z_MSC_GDPS_SpecificHumidity_IsbL-0350_LatLon0.15_PT111H.grib2 2026-04-30 16:24 1.2M
20260430T12Z_MSC_GDPS_SpecificHumidity_IsbL-0400_LatLon0.15_PT111H.grib2 2026-04-30 16:24 1.4M
20260430T12Z_MSC_GDPS_SpecificHumidity_IsbL-0450_LatLon0.15_PT111H.grib2 2026-04-30 16:24 1.6M
20260430T12Z_MSC_GDPS_SpecificHumidity_IsbL-0500_LatLon0.15_PT111H.grib2 2026-04-30 16:24 1.4M
20260430T12Z_MSC_GDPS_SpecificHumidity_IsbL-0550_LatLon0.15_PT111H.grib2 2026-04-30 16:24 1.6M
20260430T12Z_MSC_GDPS_SpecificHumidity_IsbL-0600_LatLon0.15_PT111H.grib2 2026-04-30 16:24 1.7M
20260430T12Z_MSC_GDPS_SpecificHumidity_IsbL-0650_LatLon0.15_PT111H.grib2 2026-04-30 16:24 1.5M
20260430T12Z_MSC_GDPS_SpecificHumidity_IsbL-0700_LatLon0.15_PT111H.grib2 2026-04-30 16:24 1.6M
20260430T12Z_MSC_GDPS_SpecificHumidity_IsbL-0750_LatLon0.15_PT111H.grib2 2026-04-30 16:24 1.7M
20260430T12Z_MSC_GDPS_SpecificHumidity_IsbL-0800_LatLon0.15_PT111H.grib2 2026-04-30 16:24 1.8M
20260430T12Z_MSC_GDPS_SpecificHumidity_IsbL-0850_LatLon0.15_PT111H.grib2 2026-04-30 16:24 1.9M
20260430T12Z_MSC_GDPS_SpecificHumidity_IsbL-0875_LatLon0.15_PT111H.grib2 2026-04-30 16:24 1.9M
20260430T12Z_MSC_GDPS_SpecificHumidity_IsbL-0900_LatLon0.15_PT111H.grib2 2026-04-30 16:24 1.9M
20260430T12Z_MSC_GDPS_SpecificHumidity_IsbL-0925_LatLon0.15_PT111H.grib2 2026-04-30 16:24 1.9M
20260430T12Z_MSC_GDPS_SpecificHumidity_IsbL-0950_LatLon0.15_PT111H.grib2 2026-04-30 16:24 1.5M
20260430T12Z_MSC_GDPS_SpecificHumidity_IsbL-0970_LatLon0.15_PT111H.grib2 2026-04-30 16:24 1.5M
20260430T12Z_MSC_GDPS_SpecificHumidity_IsbL-0985_LatLon0.15_PT111H.grib2 2026-04-30 16:24 1.5M
20260430T12Z_MSC_GDPS_SpecificHumidity_IsbL-1000_LatLon0.15_PT111H.grib2 2026-04-30 16:24 1.5M
20260430T12Z_MSC_GDPS_SpecificHumidity_IsbL-1015_LatLon0.15_PT111H.grib2 2026-04-30 16:24 1.4M
20260430T12Z_MSC_GDPS_SpecificHumidity_Sfc_LatLon0.15_PT111H.grib2 2026-04-30 16:24 636K
20260430T12Z_MSC_GDPS_Thickness_IsbL-0850to0700_LatLon0.15_PT111H.grib2 2026-04-30 16:24 465K
20260430T12Z_MSC_GDPS_Thickness_IsbL-1000to0500_LatLon0.15_PT111H.grib2 2026-04-30 16:24 374K
20260430T12Z_MSC_GDPS_Thickness_IsbL-1000to0850_LatLon0.15_PT111H.grib2 2026-04-30 16:24 488K
20260430T12Z_MSC_GDPS_TotalCloudCover_Sfc_LatLon0.15_PT111H.grib2 2026-04-30 16:24 824K
20260430T12Z_MSC_GDPS_TotalTotalsIndex_Sfc_LatLon0.15_PT111H.grib2 2026-04-30 16:24 6.2M
20260430T12Z_MSC_GDPS_UVIndex-ClearSky_Sfc_LatLon0.15_PT111H.grib2 2026-04-30 16:45 1.0M
20260430T12Z_MSC_GDPS_UVIndex_Sfc_LatLon0.15_PT111H.grib2 2026-04-30 16:45 1.5M
20260430T12Z_MSC_GDPS_UpwardLongwaveRadiationFlux_NTAtm_LatLon0.15_PT111H.grib2 2026-04-30 16:24 1.0M
20260430T12Z_MSC_GDPS_VerticalVelocity_IsbL-0200_LatLon0.15_PT111H.grib2 2026-04-30 16:24 1.2M
20260430T12Z_MSC_GDPS_VerticalVelocity_IsbL-0250_LatLon0.15_PT111H.grib2 2026-04-30 16:24 1.0M
20260430T12Z_MSC_GDPS_VerticalVelocity_IsbL-0500_LatLon0.15_PT111H.grib2 2026-04-30 16:24 1.0M
20260430T12Z_MSC_GDPS_VerticalVelocity_IsbL-0600_LatLon0.15_PT111H.grib2 2026-04-30 16:24 1.3M
20260430T12Z_MSC_GDPS_VerticalVelocity_IsbL-0700_LatLon0.15_PT111H.grib2 2026-04-30 16:24 1.4M
20260430T12Z_MSC_GDPS_VerticalVelocity_IsbL-0850_LatLon0.15_PT111H.grib2 2026-04-30 16:24 1.3M
20260430T12Z_MSC_GDPS_WindChill_Sfc_LatLon0.15_PT111H.grib2 2026-04-30 16:24 5.3M
20260430T12Z_MSC_GDPS_WindDir_AGL-10m_LatLon0.15_PT111H.grib2 2026-04-30 16:24 1.3M
20260430T12Z_MSC_GDPS_WindDir_AGL-120m_LatLon0.15_PT111H.grib2 2026-04-30 16:24 1.3M
20260430T12Z_MSC_GDPS_WindDir_AGL-40m_LatLon0.15_PT111H.grib2 2026-04-30 16:24 1.4M
20260430T12Z_MSC_GDPS_WindDir_AGL-80m_LatLon0.15_PT111H.grib2 2026-04-30 16:24 1.3M
20260430T12Z_MSC_GDPS_WindDir_IsbL-0001_LatLon0.15_PT111H.grib2 2026-04-30 16:24 675K
20260430T12Z_MSC_GDPS_WindDir_IsbL-0005_LatLon0.15_PT111H.grib2 2026-04-30 16:24 795K
20260430T12Z_MSC_GDPS_WindDir_IsbL-0010_LatLon0.15_PT111H.grib2 2026-04-30 16:24 837K
20260430T12Z_MSC_GDPS_WindDir_IsbL-0020_LatLon0.15_PT111H.grib2 2026-04-30 16:24 935K
20260430T12Z_MSC_GDPS_WindDir_IsbL-0030_LatLon0.15_PT111H.grib2 2026-04-30 16:24 945K
20260430T12Z_MSC_GDPS_WindDir_IsbL-0050_LatLon0.15_PT111H.grib2 2026-04-30 16:24 951K
20260430T12Z_MSC_GDPS_WindDir_IsbL-0100_LatLon0.15_PT111H.grib2 2026-04-30 16:24 1.0M
20260430T12Z_MSC_GDPS_WindDir_IsbL-0150_LatLon0.15_PT111H.grib2 2026-04-30 16:24 1.0M
20260430T12Z_MSC_GDPS_WindDir_IsbL-0175_LatLon0.15_PT111H.grib2 2026-04-30 16:24 1.0M
20260430T12Z_MSC_GDPS_WindDir_IsbL-0200_LatLon0.15_PT111H.grib2 2026-04-30 16:24 1.1M
20260430T12Z_MSC_GDPS_WindDir_IsbL-0225_LatLon0.15_PT111H.grib2 2026-04-30 16:24 1.1M
20260430T12Z_MSC_GDPS_WindDir_IsbL-0250_LatLon0.15_PT111H.grib2 2026-04-30 16:24 1.1M
20260430T12Z_MSC_GDPS_WindDir_IsbL-0275_LatLon0.15_PT111H.grib2 2026-04-30 16:24 1.2M
20260430T12Z_MSC_GDPS_WindDir_IsbL-0300_LatLon0.15_PT111H.grib2 2026-04-30 16:24 1.2M
20260430T12Z_MSC_GDPS_WindDir_IsbL-0350_LatLon0.15_PT111H.grib2 2026-04-30 16:24 1.2M
20260430T12Z_MSC_GDPS_WindDir_IsbL-0400_LatLon0.15_PT111H.grib2 2026-04-30 16:24 1.3M
20260430T12Z_MSC_GDPS_WindDir_IsbL-0450_LatLon0.15_PT111H.grib2 2026-04-30 16:24 1.3M
20260430T12Z_MSC_GDPS_WindDir_IsbL-0500_LatLon0.15_PT111H.grib2 2026-04-30 16:24 1.3M
20260430T12Z_MSC_GDPS_WindDir_IsbL-0550_LatLon0.15_PT111H.grib2 2026-04-30 16:24 1.4M
20260430T12Z_MSC_GDPS_WindDir_IsbL-0600_LatLon0.15_PT111H.grib2 2026-04-30 16:24 1.4M
20260430T12Z_MSC_GDPS_WindDir_IsbL-0650_LatLon0.15_PT111H.grib2 2026-04-30 16:24 1.5M
20260430T12Z_MSC_GDPS_WindDir_IsbL-0700_LatLon0.15_PT111H.grib2 2026-04-30 16:24 1.6M
20260430T12Z_MSC_GDPS_WindDir_IsbL-0750_LatLon0.15_PT111H.grib2 2026-04-30 16:24 1.7M
20260430T12Z_MSC_GDPS_WindDir_IsbL-0800_LatLon0.15_PT111H.grib2 2026-04-30 16:24 1.8M
20260430T12Z_MSC_GDPS_WindDir_IsbL-0850_LatLon0.15_PT111H.grib2 2026-04-30 16:24 1.9M
20260430T12Z_MSC_GDPS_WindDir_IsbL-0875_LatLon0.15_PT111H.grib2 2026-04-30 16:24 1.9M
20260430T12Z_MSC_GDPS_WindDir_IsbL-0900_LatLon0.15_PT111H.grib2 2026-04-30 16:24 1.9M
20260430T12Z_MSC_GDPS_WindDir_IsbL-0925_LatLon0.15_PT111H.grib2 2026-04-30 16:24 1.9M
20260430T12Z_MSC_GDPS_WindDir_IsbL-0950_LatLon0.15_PT111H.grib2 2026-04-30 16:24 1.9M
20260430T12Z_MSC_GDPS_WindDir_IsbL-0970_LatLon0.15_PT111H.grib2 2026-04-30 16:24 2.0M
20260430T12Z_MSC_GDPS_WindDir_IsbL-0985_LatLon0.15_PT111H.grib2 2026-04-30 16:24 2.0M
20260430T12Z_MSC_GDPS_WindDir_IsbL-1000_LatLon0.15_PT111H.grib2 2026-04-30 16:24 2.0M
20260430T12Z_MSC_GDPS_WindDir_IsbL-1015_LatLon0.15_PT111H.grib2 2026-04-30 16:24 2.0M
20260430T12Z_MSC_GDPS_WindGust-Max_AGL-10m_LatLon0.15_PT111H.grib2 2026-04-30 16:24 1.8M
20260430T12Z_MSC_GDPS_WindGust-Min_AGL-10m_LatLon0.15_PT111H.grib2 2026-04-30 16:24 2.1M
20260430T12Z_MSC_GDPS_WindGust_AGL-10m_LatLon0.15_PT111H.grib2 2026-04-30 16:24 2.1M
20260430T12Z_MSC_GDPS_WindSpeed_AGL-10m_LatLon0.15_PT111H.grib2 2026-04-30 16:24 1.1M
20260430T12Z_MSC_GDPS_WindSpeed_AGL-120m_LatLon0.15_PT111H.grib2 2026-04-30 16:24 1.2M
20260430T12Z_MSC_GDPS_WindSpeed_AGL-40m_LatLon0.15_PT111H.grib2 2026-04-30 16:24 1.2M
20260430T12Z_MSC_GDPS_WindSpeed_AGL-80m_LatLon0.15_PT111H.grib2 2026-04-30 16:24 1.2M
20260430T12Z_MSC_GDPS_WindSpeed_IsbL-0001_LatLon0.15_PT111H.grib2 2026-04-30 16:24 649K
20260430T12Z_MSC_GDPS_WindSpeed_IsbL-0005_LatLon0.15_PT111H.grib2 2026-04-30 16:24 609K
20260430T12Z_MSC_GDPS_WindSpeed_IsbL-0010_LatLon0.15_PT111H.grib2 2026-04-30 16:24 626K
20260430T12Z_MSC_GDPS_WindSpeed_IsbL-0020_LatLon0.15_PT111H.grib2 2026-04-30 16:24 856K
20260430T12Z_MSC_GDPS_WindSpeed_IsbL-0030_LatLon0.15_PT111H.grib2 2026-04-30 16:24 865K
20260430T12Z_MSC_GDPS_WindSpeed_IsbL-0050_LatLon0.15_PT111H.grib2 2026-04-30 16:24 1.0M
20260430T12Z_MSC_GDPS_WindSpeed_IsbL-0100_LatLon0.15_PT111H.grib2 2026-04-30 16:24 1.1M
20260430T12Z_MSC_GDPS_WindSpeed_IsbL-0150_LatLon0.15_PT111H.grib2 2026-04-30 16:24 942K
20260430T12Z_MSC_GDPS_WindSpeed_IsbL-0175_LatLon0.15_PT111H.grib2 2026-04-30 16:24 1.0M
20260430T12Z_MSC_GDPS_WindSpeed_IsbL-0200_LatLon0.15_PT111H.grib2 2026-04-30 16:24 1.0M
20260430T12Z_MSC_GDPS_WindSpeed_IsbL-0225_LatLon0.15_PT111H.grib2 2026-04-30 16:24 1.1M
20260430T12Z_MSC_GDPS_WindSpeed_IsbL-0250_LatLon0.15_PT111H.grib2 2026-04-30 16:24 1.1M
20260430T12Z_MSC_GDPS_WindSpeed_IsbL-0275_LatLon0.15_PT111H.grib2 2026-04-30 16:24 1.1M
20260430T12Z_MSC_GDPS_WindSpeed_IsbL-0300_LatLon0.15_PT111H.grib2 2026-04-30 16:24 1.1M
20260430T12Z_MSC_GDPS_WindSpeed_IsbL-0350_LatLon0.15_PT111H.grib2 2026-04-30 16:24 1.1M
20260430T12Z_MSC_GDPS_WindSpeed_IsbL-0400_LatLon0.15_PT111H.grib2 2026-04-30 16:24 1.1M
20260430T12Z_MSC_GDPS_WindSpeed_IsbL-0450_LatLon0.15_PT111H.grib2 2026-04-30 16:24 1.1M
20260430T12Z_MSC_GDPS_WindSpeed_IsbL-0500_LatLon0.15_PT111H.grib2 2026-04-30 16:24 1.1M
20260430T12Z_MSC_GDPS_WindSpeed_IsbL-0550_LatLon0.15_PT111H.grib2 2026-04-30 16:24 1.1M
20260430T12Z_MSC_GDPS_WindSpeed_IsbL-0600_LatLon0.15_PT111H.grib2 2026-04-30 16:24 1.1M
20260430T12Z_MSC_GDPS_WindSpeed_IsbL-0650_LatLon0.15_PT111H.grib2 2026-04-30 16:24 1.4M
20260430T12Z_MSC_GDPS_WindSpeed_IsbL-0700_LatLon0.15_PT111H.grib2 2026-04-30 16:24 1.5M
20260430T12Z_MSC_GDPS_WindSpeed_IsbL-0750_LatLon0.15_PT111H.grib2 2026-04-30 16:24 1.5M
20260430T12Z_MSC_GDPS_WindSpeed_IsbL-0800_LatLon0.15_PT111H.grib2 2026-04-30 16:24 1.3M
20260430T12Z_MSC_GDPS_WindSpeed_IsbL-0850_LatLon0.15_PT111H.grib2 2026-04-30 16:24 1.4M
20260430T12Z_MSC_GDPS_WindSpeed_IsbL-0875_LatLon0.15_PT111H.grib2 2026-04-30 16:24 1.5M
20260430T12Z_MSC_GDPS_WindSpeed_IsbL-0900_LatLon0.15_PT111H.grib2 2026-04-30 16:24 1.5M
20260430T12Z_MSC_GDPS_WindSpeed_IsbL-0925_LatLon0.15_PT111H.grib2 2026-04-30 16:24 1.8M
20260430T12Z_MSC_GDPS_WindSpeed_IsbL-0950_LatLon0.15_PT111H.grib2 2026-04-30 16:24 1.8M
20260430T12Z_MSC_GDPS_WindSpeed_IsbL-0970_LatLon0.15_PT111H.grib2 2026-04-30 16:24 1.9M
20260430T12Z_MSC_GDPS_WindSpeed_IsbL-0985_LatLon0.15_PT111H.grib2 2026-04-30 16:24 1.9M
20260430T12Z_MSC_GDPS_WindSpeed_IsbL-1000_LatLon0.15_PT111H.grib2 2026-04-30 16:24 1.9M
20260430T12Z_MSC_GDPS_WindSpeed_IsbL-1015_LatLon0.15_PT111H.grib2 2026-04-30 16:24 1.8M
20260430T12Z_MSC_GDPS_WindU_AGL-10m_LatLon0.15_PT111H.grib2 2026-04-30 16:24 1.3M
20260430T12Z_MSC_GDPS_WindU_AGL-120m_LatLon0.15_PT111H.grib2 2026-04-30 16:24 1.0M
20260430T12Z_MSC_GDPS_WindU_AGL-40m_LatLon0.15_PT111H.grib2 2026-04-30 16:24 1.0M
20260430T12Z_MSC_GDPS_WindU_AGL-80m_LatLon0.15_PT111H.grib2 2026-04-30 16:24 1.0M
20260430T12Z_MSC_GDPS_WindU_IsbL-0001_LatLon0.15_PT111H.grib2 2026-04-30 16:24 502K
20260430T12Z_MSC_GDPS_WindU_IsbL-0005_LatLon0.15_PT111H.grib2 2026-04-30 16:24 689K
20260430T12Z_MSC_GDPS_WindU_IsbL-0010_LatLon0.15_PT111H.grib2 2026-04-30 16:24 700K
20260430T12Z_MSC_GDPS_WindU_IsbL-0020_LatLon0.15_PT111H.grib2 2026-04-30 16:24 731K
20260430T12Z_MSC_GDPS_WindU_IsbL-0030_LatLon0.15_PT111H.grib2 2026-04-30 16:24 740K
20260430T12Z_MSC_GDPS_WindU_IsbL-0050_LatLon0.15_PT111H.grib2 2026-04-30 16:24 698K
20260430T12Z_MSC_GDPS_WindU_IsbL-0100_LatLon0.15_PT111H.grib2 2026-04-30 16:24 924K
20260430T12Z_MSC_GDPS_WindU_IsbL-0150_LatLon0.15_PT111H.grib2 2026-04-30 16:24 1.0M
20260430T12Z_MSC_GDPS_WindU_IsbL-0175_LatLon0.15_PT111H.grib2 2026-04-30 16:24 1.0M
20260430T12Z_MSC_GDPS_WindU_IsbL-0200_LatLon0.15_PT111H.grib2 2026-04-30 16:24 835K
20260430T12Z_MSC_GDPS_WindU_IsbL-0225_LatLon0.15_PT111H.grib2 2026-04-30 16:24 845K
20260430T12Z_MSC_GDPS_WindU_IsbL-0250_LatLon0.15_PT111H.grib2 2026-04-30 16:24 846K
20260430T12Z_MSC_GDPS_WindU_IsbL-0275_LatLon0.15_PT111H.grib2 2026-04-30 16:24 872K
20260430T12Z_MSC_GDPS_WindU_IsbL-0300_LatLon0.15_PT111H.grib2 2026-04-30 16:24 865K
20260430T12Z_MSC_GDPS_WindU_IsbL-0350_LatLon0.15_PT111H.grib2 2026-04-30 16:24 882K
20260430T12Z_MSC_GDPS_WindU_IsbL-0400_LatLon0.15_PT111H.grib2 2026-04-30 16:24 885K
20260430T12Z_MSC_GDPS_WindU_IsbL-0450_LatLon0.15_PT111H.grib2 2026-04-30 16:24 885K
20260430T12Z_MSC_GDPS_WindU_IsbL-0500_LatLon0.15_PT111H.grib2 2026-04-30 16:24 1.1M
20260430T12Z_MSC_GDPS_WindU_IsbL-0550_LatLon0.15_PT111H.grib2 2026-04-30 16:24 1.1M
20260430T12Z_MSC_GDPS_WindU_IsbL-0600_LatLon0.15_PT111H.grib2 2026-04-30 16:24 1.1M
20260430T12Z_MSC_GDPS_WindU_IsbL-0650_LatLon0.15_PT111H.grib2 2026-04-30 16:24 1.2M
20260430T12Z_MSC_GDPS_WindU_IsbL-0700_LatLon0.15_PT111H.grib2 2026-04-30 16:24 1.2M
20260430T12Z_MSC_GDPS_WindU_IsbL-0750_LatLon0.15_PT111H.grib2 2026-04-30 16:24 1.3M
20260430T12Z_MSC_GDPS_WindU_IsbL-0800_LatLon0.15_PT111H.grib2 2026-04-30 16:24 1.3M
20260430T12Z_MSC_GDPS_WindU_IsbL-0850_LatLon0.15_PT111H.grib2 2026-04-30 16:24 1.4M
20260430T12Z_MSC_GDPS_WindU_IsbL-0875_LatLon0.15_PT111H.grib2 2026-04-30 16:24 1.5M
20260430T12Z_MSC_GDPS_WindU_IsbL-0900_LatLon0.15_PT111H.grib2 2026-04-30 16:24 1.5M
20260430T12Z_MSC_GDPS_WindU_IsbL-0925_LatLon0.15_PT111H.grib2 2026-04-30 16:24 1.5M
20260430T12Z_MSC_GDPS_WindU_IsbL-0950_LatLon0.15_PT111H.grib2 2026-04-30 16:24 1.4M
20260430T12Z_MSC_GDPS_WindU_IsbL-0970_LatLon0.15_PT111H.grib2 2026-04-30 16:24 1.4M
20260430T12Z_MSC_GDPS_WindU_IsbL-0985_LatLon0.15_PT111H.grib2 2026-04-30 16:24 1.4M
20260430T12Z_MSC_GDPS_WindU_IsbL-1000_LatLon0.15_PT111H.grib2 2026-04-30 16:24 1.4M
20260430T12Z_MSC_GDPS_WindU_IsbL-1015_LatLon0.15_PT111H.grib2 2026-04-30 16:24 1.3M
20260430T12Z_MSC_GDPS_WindV_AGL-10m_LatLon0.15_PT111H.grib2 2026-04-30 16:24 1.6M
20260430T12Z_MSC_GDPS_WindV_AGL-120m_LatLon0.15_PT111H.grib2 2026-04-30 16:24 966K
20260430T12Z_MSC_GDPS_WindV_AGL-40m_LatLon0.15_PT111H.grib2 2026-04-30 16:24 959K
20260430T12Z_MSC_GDPS_WindV_AGL-80m_LatLon0.15_PT111H.grib2 2026-04-30 16:24 966K
20260430T12Z_MSC_GDPS_WindV_IsbL-0001_LatLon0.15_PT111H.grib2 2026-04-30 16:24 780K
20260430T12Z_MSC_GDPS_WindV_IsbL-0005_LatLon0.15_PT111H.grib2 2026-04-30 16:24 855K
20260430T12Z_MSC_GDPS_WindV_IsbL-0010_LatLon0.15_PT111H.grib2 2026-04-30 16:24 884K
20260430T12Z_MSC_GDPS_WindV_IsbL-0020_LatLon0.15_PT111H.grib2 2026-04-30 16:24 934K
20260430T12Z_MSC_GDPS_WindV_IsbL-0030_LatLon0.15_PT111H.grib2 2026-04-30 16:24 938K
20260430T12Z_MSC_GDPS_WindV_IsbL-0050_LatLon0.15_PT111H.grib2 2026-04-30 16:24 904K
20260430T12Z_MSC_GDPS_WindV_IsbL-0100_LatLon0.15_PT111H.grib2 2026-04-30 16:24 1.1M
20260430T12Z_MSC_GDPS_WindV_IsbL-0150_LatLon0.15_PT111H.grib2 2026-04-30 16:24 1.0M
20260430T12Z_MSC_GDPS_WindV_IsbL-0175_LatLon0.15_PT111H.grib2 2026-04-30 16:24 1.0M
20260430T12Z_MSC_GDPS_WindV_IsbL-0200_LatLon0.15_PT111H.grib2 2026-04-30 16:24 833K
20260430T12Z_MSC_GDPS_WindV_IsbL-0225_LatLon0.15_PT111H.grib2 2026-04-30 16:24 902K
20260430T12Z_MSC_GDPS_WindV_IsbL-0250_LatLon0.15_PT111H.grib2 2026-04-30 16:24 900K
20260430T12Z_MSC_GDPS_WindV_IsbL-0275_LatLon0.15_PT111H.grib2 2026-04-30 16:24 925K
20260430T12Z_MSC_GDPS_WindV_IsbL-0300_LatLon0.15_PT111H.grib2 2026-04-30 16:24 918K
20260430T12Z_MSC_GDPS_WindV_IsbL-0350_LatLon0.15_PT111H.grib2 2026-04-30 16:24 931K
20260430T12Z_MSC_GDPS_WindV_IsbL-0400_LatLon0.15_PT111H.grib2 2026-04-30 16:24 872K
20260430T12Z_MSC_GDPS_WindV_IsbL-0450_LatLon0.15_PT111H.grib2 2026-04-30 16:24 1.1M
20260430T12Z_MSC_GDPS_WindV_IsbL-0500_LatLon0.15_PT111H.grib2 2026-04-30 16:24 1.1M
20260430T12Z_MSC_GDPS_WindV_IsbL-0550_LatLon0.15_PT111H.grib2 2026-04-30 16:24 1.1M
20260430T12Z_MSC_GDPS_WindV_IsbL-0600_LatLon0.15_PT111H.grib2 2026-04-30 16:24 1.1M
20260430T12Z_MSC_GDPS_WindV_IsbL-0650_LatLon0.15_PT111H.grib2 2026-04-30 16:24 1.2M
20260430T12Z_MSC_GDPS_WindV_IsbL-0700_LatLon0.15_PT111H.grib2 2026-04-30 16:24 1.2M
20260430T12Z_MSC_GDPS_WindV_IsbL-0750_LatLon0.15_PT111H.grib2 2026-04-30 16:24 1.2M
20260430T12Z_MSC_GDPS_WindV_IsbL-0800_LatLon0.15_PT111H.grib2 2026-04-30 16:24 1.3M
20260430T12Z_MSC_GDPS_WindV_IsbL-0850_LatLon0.15_PT111H.grib2 2026-04-30 16:24 1.4M
20260430T12Z_MSC_GDPS_WindV_IsbL-0875_LatLon0.15_PT111H.grib2 2026-04-30 16:24 1.4M
20260430T12Z_MSC_GDPS_WindV_IsbL-0900_LatLon0.15_PT111H.grib2 2026-04-30 16:24 1.4M
20260430T12Z_MSC_GDPS_WindV_IsbL-0925_LatLon0.15_PT111H.grib2 2026-04-30 16:24 1.4M
20260430T12Z_MSC_GDPS_WindV_IsbL-0950_LatLon0.15_PT111H.grib2 2026-04-30 16:24 1.4M
20260430T12Z_MSC_GDPS_WindV_IsbL-0970_LatLon0.15_PT111H.grib2 2026-04-30 16:24 1.4M
20260430T12Z_MSC_GDPS_WindV_IsbL-0985_LatLon0.15_PT111H.grib2 2026-04-30 16:24 1.4M
20260430T12Z_MSC_GDPS_WindV_IsbL-1000_LatLon0.15_PT111H.grib2 2026-04-30 16:24 1.7M
20260430T12Z_MSC_GDPS_WindV_IsbL-1015_LatLon0.15_PT111H.grib2 2026-04-30 16:24 1.6M